Location: Tamazert
(32.6352°N, 5.2072°W)
Time: 04:23:56
(UTC+00:00)

Vanguard 2 Rocket - Pass Details

Date: 09 October 2022
Orbit: 555 x 3321 km, 32.9° (Epoch: 04 December)

Event Time Altitude Azimuth Distance (km) Brightness Sun altitude
Rises 02:36:28 0° 284° (WNW) 5,663 - -46.6°
Reaches altitude 10° 02:41:02 10° 280° (W) 4,184 - -45.7°
Maximum altitude 02:50:36 47° 211° (SSW) 1,525 - -44.0°
Drops below altitude 10° 02:56:13 10° 138° (SE) 2,480 - -42.9°
Sets 02:58:18 0° 132° (SE) 3,206 - -42.5°
